Location: Góry Miechowskie
(50.3599°N, 20.1803°E)
Time: 23:02:27
(UTC+00:00)

Tiros 1 despin weight - Pass Details

Date: 17 September 2024
Orbit: 572 x 614 km, 48.2° (Epoch: 12 October)

Event Time Altitude Azimuth Distance (km) Brightness Sun altitude
Rises 02:27:37 0° 244° (WSW) 2,866 - -17.8°
Reaches altitude 10° 02:29:56 10° 240° (WSW) 1,968 - -17.4°
Exits shadow 02:32:32 32° 223° (SW) 1,070 ? -17.1°
Maximum altitude 02:34:21 53° 164° (SSE) 763 ? -16.8°
Drops below altitude 10° 02:38:47 10° 88° (E) 1,981 ? -16.2°
Sets 02:41:08 0° 84° (E) 2,887 ? -15.8°
